Location: Sternwarte Stuttgart
(48.7670°N, 9.1830°E)
Time: 15:02:28
(UTC+02:00)

ISS - All Passes

Search period start: 27 June 2016 00:00
Search period end: 07 July 2016 00:00
Orbit: 402 x 403 km, 51.6° (Epoch: 27 June)

Date Brightness Start Highest point End Pass type
(mag) Time Alt. Az. Time Alt. Az. Time Alt. Az.
27 Jun - 10:53:14 10° SW 10:56:22 46° SSE 10:59:32 10° ENE daylight
27 Jun - 12:29:35 10° W 12:32:48 57° N 12:36:02 10° ENE daylight
27 Jun - 14:06:19 10° WNW 14:09:32 54° N 14:12:46 10° E daylight
27 Jun - 15:42:49 10° WNW 15:46:01 54° SSW 15:49:13 10° SE daylight
27 Jun - 17:21:06 10° WSW 17:21:52 11° SW 17:22:38 10° SSW daylight
28 Jun - 10:00:52 10° SSW 10:03:44 28° SE 10:06:37 10° E daylight
28 Jun - 11:36:44 10° WSW 11:40:00 73° NNW 11:43:17 10° ENE daylight
28 Jun - 13:13:30 10° WNW 13:16:42 49° N 13:19:53 10° E daylight
28 Jun - 14:50:01 10° WNW 14:53:18 82° SSW 14:56:35 10° ESE daylight
28 Jun - 16:27:04 10° W 16:29:22 18° SW 16:31:40 10° S daylight
29 Jun - 09:08:54 10° S 09:11:10 18° SE 09:13:26 10° E daylight
29 Jun - 10:43:57 10° WSW 10:47:13 81° SSE 10:50:30 10° ENE daylight
29 Jun - 12:20:38 10° W 12:23:50 49° N 12:27:01 10° ENE daylight
29 Jun - 13:57:15 10° WNW 14:00:32 72° NNE 14:03:47 10° ESE daylight
29 Jun - 15:33:54 10° W 15:36:47 29° SW 15:39:40 10° SSE daylight
30 Jun - 08:18:03 10° SE 08:18:39 10° SE 08:19:15 10° ESE daylight
30 Jun - 09:51:18 10° SW 09:54:29 53° SSE 09:57:41 10° ENE daylight
30 Jun - 11:27:45 10° W 11:30:58 54° N 11:34:11 10° ENE daylight
30 Jun - 13:04:27 10° WNW 13:07:41 57° N 13:10:56 10° E daylight
30 Jun - 14:40:58 10° WNW 14:44:08 46° SSW 14:47:17 10° SE daylight
01 Jul - 08:58:50 10° SSW 09:01:48 33° SE 09:04:47 10° E daylight
01 Jul - 10:34:51 10° W 10:38:07 67° NNW 10:41:22 10° ENE daylight
01 Jul - 12:11:37 10° WNW 12:14:49 50° N 12:18:01 10° E daylight
01 Jul - 13:48:07 10° WNW 13:51:24 73° SSW 13:54:39 10° ESE daylight
01 Jul - 15:25:22 10° W 15:27:24 15° SW 15:29:26 10° S daylight
02 Jul - 08:06:41 10° S 08:09:10 20° SE 08:11:40 10° E daylight
02 Jul - 09:42:01 10° WSW 09:45:17 90° SSE 09:48:34 10° ENE daylight
02 Jul - 11:18:44 10° WNW 11:21:56 48° N 11:25:07 10° ENE daylight
02 Jul - 12:55:19 10° WNW 12:58:36 79° NNE 13:01:53 10° ESE daylight
02 Jul - 14:32:03 10° W 14:34:48 25° SW 14:37:33 10° SSE daylight
03 Jul - 07:15:13 10° SSE 07:16:36 12° SE 07:18:01 10° ESE daylight
03 Jul - 08:49:17 10° SW 08:52:31 60° SSE 08:55:45 10° ENE daylight
03 Jul - 10:25:49 10° W 10:29:02 52° N 10:32:14 10° ENE daylight
03 Jul - 12:02:30 10° WNW 12:05:45 60° NNE 12:08:59 10° E daylight
03 Jul - 13:39:02 10° WNW 13:42:09 40° SSW 13:45:14 10° SE daylight
04 Jul - 07:56:44 10° SW 07:59:47 37° SSE 08:02:51 10° ENE daylight
04 Jul - 09:32:54 10° W 09:36:09 62° NNW 09:39:24 10° ENE daylight
04 Jul - 11:09:39 10° WNW 11:12:52 51° N 11:16:05 10° E daylight
04 Jul - 12:46:09 10° WNW 12:49:24 65° SSW 12:52:38 10° SE daylight
04 Jul - 14:23:40 10° WSW 14:25:20 13° SW 14:26:59 10° SSW daylight
05 Jul - 07:04:26 10° SSW 07:07:07 23° SE 07:09:47 10° E daylight
05 Jul - 08:40:01 10° WSW 08:43:17 82° NNW 08:46:34 10° ENE daylight
05 Jul - 10:16:45 10° WNW 10:19:56 48° N 10:23:08 10° ENE daylight
05 Jul - 11:53:18 10° WNW 11:56:35 86° NNE 11:59:52 10° ESE daylight
05 Jul - 13:30:08 10° W 13:32:45 22° SW 13:35:19 10° SSE daylight
06 Jul - 06:12:40 10° S 06:14:30 14° SE 06:16:20 10° ESE daylight
06 Jul - 07:47:13 10° WSW 07:50:27 69° SSE 07:53:43 10° ENE daylight
06 Jul - 09:23:49 10° W 09:27:01 50° N 09:30:13 10° ENE daylight
06 Jul - 11:00:28 10° WNW 11:03:44 64° NNE 11:06:59 10° E daylight
06 Jul - 12:37:02 10° W 12:40:04 35° SSW 12:43:05 10° SE daylight
